Home > Weather > Rankin Inlet > Past weeks

Flag for Canada Weather for the Past 2 Weeks in Rankin Inlet, Nunavut, Canada

Now
-31 °F

Snow flurries. Clear.


Feels Like: -62 °F
Forecast: -35 / -28 °F
Wind: 20 mph from North

Location: Rankin Inlet

Current Time: Feb 9, 2016 at 2:16:35 AM

Latest Report: Feb 9, 2016 at 1:00 AM


Visibility: 15 mi

Pressure: 30.35 "Hg

Humidity: 67%

Dew point: -38 °F

Location of Rankin InletLocation

Historic Weather in Rankin Inlet — Graph

°F

Rankin Inlet Temperature Yesterday

Maximum temperature yesterday: -15 °F (at 12:00 AM)
Minimum temperature yesterday: -31 °F (at 5:00 PM)
Average temperature yesterday: -23 °F

High & Low Weather Summary for the Past Weeks

 TemperatureHumidityPressure
High-6 °F (Jan 30, 4:00 PM)77% (Jan 29, 10:00 AM)30.36 "Hg (Jan 29, 10:00 AM)
Low-38 °F (Jan 27, 11:00 PM)59% (Jan 27, 4:00 AM)29.57 "Hg (Jan 29, 4:00 PM)
Average-23 °F69%29.95 "Hg
* Reported Jan 25 1:00 AM — Feb 9 1:00 AM, Rankin Inlet, Weather by CustomWeather, © 2016

Note: Actual official high and low records may vary slightly from our data, if they occured in-between our weather recording intervals... More about our weather records

Advertising

Rankin Inlet Weather History for the Previous 24 Hours

 ConditionsComfort  
Time TempWeatherWind HumidityBarometerVisibility
1:00 AM
Tue, Feb 9
-31 °FSnow flurries. Clear.20 mph67%30.35 "Hg15 mi
12:00 AM-31 °FSnow flurries. Clear.20 mph67%30.35 "Hg15 mi
11:00 PM
Mon, Feb 8
-31 °FSnow flurries. Clear.9 mph67%30.36 "Hg15 mi
10:00 PM-31 °FSnow flurries. Clear.15 mph67%30.36 "Hg15 mi
9:00 PM-29 °FSnow flurries. Clear.21 mph67%30.35 "Hg15 mi
8:00 PM-29 °FSnow flurries. Low level haze.18 mph67%30.35 "Hg15 mi
7:00 PM-27 °FSnow flurries. Passing clouds.15 mph67%30.35 "Hg15 mi
6:00 PM-27 °FSnow flurries. Passing clouds.18 mph67%30.34 "Hg10 mi
5:00 PM-31 °FSnow flurries. Passing clouds.12 mph67%30.34 "Hg15 mi
4:00 PM-29 °FSnow flurries. Scattered clouds.14 mph67%30.34 "Hg15 mi
3:00 PM-27 °FSnow flurries. Scattered clouds.15 mph67%30.32 "Hg15 mi
2:00 PM-27 °FSnow flurries. Scattered clouds.13 mph67%30.31 "Hg10 mi
1:00 PM-26 °FSnow flurries. Scattered clouds.15 mph67%30.31 "Hg10 mi
12:00 PM-24 °FSnow flurries. Partly sunny.14 mph68%30.30 "Hg10 mi
11:00 AM-24 °FSnow flurries. Partly sunny.16 mph75%30.29 "Hg10 mi
10:00 AM-22 °FSnow flurries. Partly sunny.14 mph68%30.29 "Hg10 mi
9:00 AM-20 °FLight snow. Broken clouds.12 mph75%30.29 "Hg10 mi
8:00 AM-17 °FLight snow. Mostly cloudy.9 mph76%30.27 "Hg8 mi
7:00 AM-15 °FLight snow. Mostly cloudy.8 mph76%30.25 "Hg8 mi
6:00 AM-15 °FLight snow. Partly cloudy.8 mph69%30.25 "Hg15 mi
5:00 AM-15 °FLight snow. Partly cloudy.6 mph76%30.25 "Hg10 mi
4:00 AM-17 °FSnow flurries. Partly cloudy.3 mph76%30.25 "Hg15 mi
3:00 AM-17 °FSnow flurries. Passing clouds.3 mph76%30.25 "Hg10 mi
2:00 AM-15 °FSnow flurries. Passing clouds.5 mph69%30.24 "Hg15 mi
Weather by CustomWeather, © 2016

See weather overviewHow to use our weather pages